Showing default

YAOGAN 28, 41026

Orbit data source: Space-Track

YAOGAN 28, 41026 is a payload satellite owned by PLA GAD (CN) in SSO that was launched on Sun, 08 Nov 2015 UTC via a CHANG ZHENG 4B launch vehicle from the Taiyaun Space Center, China (TSC). Payload-class satellites include a variety of spacecraft equipped with specific instruments for various scientific and technological missions. These include communications satellites like Starlink; space stations such as the ISS; scientific satellites like the Hubble; Earth observation satellites from companies like Planet Labs, Umbra, and HawkEye 360; GPS; miniature CubeSats for education and research; and military/defense satellites.

Loading next visibility...
Identifier
41026, 2015-064A
Orbit
SSO
Country
Flag of CNCN / PRC
Related business
Manufacturer
CAST
Mission
Operational Defense Imaging
Bus & Motor
JB-11, Unknown motor
Mass
~3,000 kg wet, ~3,000 kg dry
Launch date (UTC)
2015-11-08 (11 years ago)
Launch vehicle
CHANG ZHENG 4B
Launch site
Taiyaun Space Center, China (TSC)
Object type
Payload
Rocket body
Debris
Shape & HBR
Box + 2 Pan, 4.0 m
Radar Cross Section
9.231 m², Large (>1 m²)

Expand to show TLE details & history
Last TLE update: 22 hours ago

TLE from 22 hours ago
0 YAOGAN 28
1 41026U 15064A   26172.51546970  .00005398  00000-0  20324-3 0  9993
2 41026  97.3080 310.6890 0011032 168.3464 191.8032 15.27465990591342
Epoch: 2026-06-21T12:22Z
TLE epoch observation values (Epoch: 2026-06-21T12:22:16.582Z)
Latitude
-0.00009°
Longitude
-144.59471°
Altitude
493.905 km
Speed
7.614 km/s
True Right ascension
20h 42m 45s
True Declination
0° 00' 00"
Sunlit
Object was in full shadow at epoch
Visualization orbit readout
Latitude
Unknown
Longitude
Unknown
Altitude
Unknown
Speed
Unknown
Apparent Right ascension
Unknown
Apparent Declination
Unknown
Sunlit
N/A
Visualization observer readout
Local Sidereal Time
21:34:34
Azimuth
Unknown
Elevation
Unknown
Doppler factor
Unknown
Orbital elements
Apogee altitude
487.908 km
Perigee altitude
472.776 km
Semi-major axis
6,858.479 km
Eccentricity
0.0011
Inclination
97.308°
RAAN
310.689°
Arg. of periapsis
168.3464°
True anomaly
191.77738°
Mean anomaly
191.8032°
Eccentric anomaly
191.79028°
Mean motion
3.82121 °/min
Orbital period
94.21 mins
BSTAR
0.00020324
Loading maneuver chart data...
Computing Atmospheric mass density...
Loading historical data...
Loading historical data...
Loading historical data...
Loading historical data...
Loading historical data...
Loading historical data...
Loading historical data...

Documentation

Showing up to 5 results
|